Location: Pabrico
(37.5827°N, 122.0063°W)
Time: 23:08:37
(UTC+00:00)

Cosmos 1766 - Pass Details

Date: 13 April 2024
Orbit: 487 x 505 km, 82.5° (Epoch: 21 May)

Event Time Altitude Azimuth Distance (km) Brightness Sun altitude
Rises 12:42:43 0° 350° (N) 2,570 6.9 -10.8°
Reaches altitude 10° 12:44:51 10° 349° (NNW) 1,682 5.9 -10.4°
Maximum altitude 12:48:30 72° 265° (W) 515 3.0 -9.7°
Drops below altitude 10° 12:52:08 10° 180° (S) 1,665 5.6 -9.0°
Sets 12:54:13 0° 179° (S) 2,541 6.5 -8.6°
